Find Starlink 34389

NORAD ID: 64351 Int'l Des: 2025-126 Owner: SPXS Country: US Constellation: starlink operational
LEOCIRCULAR

当前视图

正在加载3D地球...

About Starlink 34389

Starlink 34389 (NORAD 64351) is a starlink constellation satellite (v2 mini) launched Jun 13, 2025 by SPXS of US. It operates in LEO, CIRCULAR orbit with a mass of 575.00 kg.

关于 Starlink 34389

正在加载描述...

即将过境

Passes for default location (London). Set your location on the main map for personalized predictions.

高度历史

Loading altitude history...

两行轨道根数

1 64351U 25126H 26195.07519437 .00007749 00000-0 65594-3 0 9993
2 64351 70.0003 75.7711 0003040 268.8490 91.2320 14.98362310 59618
Epoch: Jul 14, 2026 • Age: 13 hours

当前状态

高度 585.3 km
远地点 / 近地点 N/A
速度 7.57 km/s
星下点 68.69°N, 14.79°W
发射日期 Jun 13, 2025
运行时间 1 year
类型 internet

技术详情

分类 Payload
质量 575.00 kg
干质量 530.00 kg
总质量 575.00 kg
长度 0.30 m
直径 4.10 m
跨度 29.00 m
形状 Box + pan
制造商 SPXS
平台类型 Starlink V2MO
阶段状态 In Orbit
所有者/国家 SPXS/US

Most Searched